Télécharger nos applis :
Date Heure Temperature Direction Vent Rafales Pluie Pression Humidité Condition
VEN.
24
02:00 5°C 0 0 --- 1020 hPa 99% Peu nuageux
05:00 6°C 0 0 --- 1020 hPa 97% Couvert
08:00 6°C 5 5 --- 1020 hPa 93% Couvert
11:00 12°C 5 10 --- 1019 hPa 57% Ciel voilé
14:00 14°C 10 15 --- 1018 hPa 45% Ciel voilé
17:00 14°C 10 10 --- 1017 hPa 44% Ensoleillé / Ciel clair
20:00 11°C 5 15 --- 1017 hPa 65% Ensoleillé / Ciel clair
23:00 5°C 0 0 --- 1020 hPa 97% Ensoleillé / Ciel clair
SAM.
25
02:00 4°C 5 5 --- 1020 hPa 97% Ensoleillé / Ciel clair
05:00 4°C 5 5 --- 1019 hPa 97% Ensoleillé / Ciel clair
08:00 6°C 0 5 --- 1018 hPa 86% Ciel voilé
11:00 14°C 0 0 --- 1017 hPa 43% Peu nuageux
14:00 17°C 5 5 --- 1016 hPa 36% Couvert
17:00 18°C 5 5 --- 1015 hPa 31% Couvert
20:00 14°C 5 5 --- 1016 hPa 62% Peu nuageux
23:00 8°C 5 5 --- 1018 hPa 66% Peu nuageux
DIM.
26
02:00 7°C 5 5 --- 1018 hPa 62% Ciel voilé
05:00 9°C 5 5 --- 1018 hPa 57% Peu nuageux
08:00 10°C 0 0 --- 1019 hPa 67% Couvert
11:00 15°C 5 5 --- 1019 hPa 56% Couvert
14:00 16°C 5 5 --- 1019 hPa 57% Couvert
17:00 17°C 5 5 --- 1018 hPa 58% Couvert
20:00 12°C 5 10 0.3 mm 1019 hPa 97% Averses de pluie faible
23:00 10°C 5 5 0.8 mm 1020 hPa 99% Brouillard / Brumeux
LUN.
27
02:00 9°C 0 0 0.6 mm 1020 hPa 99% Brouillard / Brumeux
05:00 8°C 5 5 1.3 mm 1019 hPa 99% Brouillard / Brumeux
08:00 8°C 5 5 2.7 mm 1019 hPa 99% Brouillard / Brumeux
11:00 8°C 5 10 5.2 mm 1019 hPa 100% Brouillard / Brumeux
14:00 9°C 10 15 4.1 mm 1020 hPa 97% Pluie
17:00 7°C 5 20 0.5 mm 1021 hPa 99% Brouillard / Brumeux
20:00 7°C 10 15 0.4 mm 1022 hPa 98% Brouillard / Brumeux
23:00 6°C 5 25 --- 1023 hPa 99% Couvert
MAR.
28
02:00 5°C 10 20 --- 1024 hPa 99% Peu nuageux
05:00 4°C 10 20 0.2 mm 1024 hPa 99% Brouillard / Brumeux
08:00 4°C 10 20 0.1 mm 1024 hPa 97% Couvert
11:00 7°C 15 15 0.1 mm 1024 hPa 76% Peu nuageux
14:00 10°C 15 15 0.2 mm 1022 hPa 60% Averses de pluie faible
17:00 12°C 15 15 --- 1022 hPa 57% Couvert
20:00 10°C 10 15 --- 1022 hPa 71% Couvert
23:00 6°C 10 25 --- 1024 hPa 97% Peu nuageux
MER.
29
02:00 5°C 5 10 --- 1023 hPa 100% Couvert
05:00 5°C 5 15 --- 1023 hPa 99% Couvert
08:00 6°C 5 15 --- 1023 hPa 96% Couvert
11:00 12°C 10 20 --- 1022 hPa 69% Couvert
14:00 15°C 15 20 --- 1020 hPa 60% Couvert
17:00 17°C 10 20 --- 1018 hPa 55% Couvert
20:00 14°C 10 15 --- 1019 hPa 69% Couvert
23:00 8°C 5 5 --- 1021 hPa 98% Peu nuageux
JEU.
30
02:00 7°C 5 5 --- 1020 hPa 97% Peu nuageux
05:00 6°C 5 5 --- 1019 hPa 97% Couvert
08:00 9°C 5 10 --- 1019 hPa 88% Couvert
11:00 16°C 5 10 --- 1018 hPa 55% Couvert
14:00 19°C 10 10 --- 1017 hPa 46% Couvert
17:00 20°C 10 10 --- 1015 hPa 49% Couvert
20:00 16°C 10 20 --- 1016 hPa 71% Couvert
23:00 11°C 5 15 --- 1017 hPa 98% Couvert
VEN.
31
02:00 10°C 0 0 --- 1017 hPa 99% Couvert
05:00 9°C 0 0 --- 1016 hPa 99% Couvert
08:00 10°C 5 5 --- 1017 hPa 95% Couvert
11:00 16°C 10 15 --- 1016 hPa 60% Couvert
14:00 19°C 10 15 --- 1015 hPa 42% Peu nuageux
17:00 19°C 10 15 --- 1015 hPa 46% Ensoleillé / Ciel clair
20:00 16°C 10 20 --- 1015 hPa 66% Ensoleillé / Ciel clair
23:00 9°C 5 5 --- 1018 hPa 98% Ensoleillé / Ciel clair
SAM.
01
02:00 8°C 0 0 --- 1018 hPa 99% Ensoleillé / Ciel clair
05:00 7°C 0 0 --- 1018 hPa 98% Ciel voilé
08:00 9°C 5 5 --- 1018 hPa 95% Ciel voilé
11:00 15°C 5 10 --- 1018 hPa 66% Peu nuageux
14:00 19°C 10 10 --- 1017 hPa 46% Peu nuageux
17:00 19°C 10 10 --- 1017 hPa 44% Ciel voilé
20:00 15°C 10 15 --- 1018 hPa 64% Ciel voilé
23:00 10°C 5 15 --- 1019 hPa 91% Couvert
DIM.
02
02:00 8°C 5 0 --- 1020 hPa 99% Couvert
05:00 7°C 0 0 --- 1020 hPa 99% Peu nuageux
08:00 9°C 5 10 --- 1020 hPa 94% Peu nuageux
11:00 14°C 10 15 --- 1019 hPa 60% Ciel voilé
14:00 14°C 15 20 --- 1019 hPa 65% Peu nuageux
17:00 15°C 15 20 0.1 mm 1018 hPa 54% Couvert
20:00 13°C 10 15 --- 1019 hPa 59% Couvert
23:00 6°C 5 5 --- 1022 hPa 86% Couvert
LUN.
03
02:00 3°C 5 5 --- 1023 hPa 97% Peu nuageux